Location: Ciserano
(45.5833°N, 9.6000°E)
Time: 04:56:46
(UTC+00:00)

Aureole 2 Rocket - Pass Details

Date: 29 November 2020
Orbit: 289 x 388 km, 73.9° (Epoch: 24 January)

Event Time Altitude Azimuth Distance (km) Brightness Sun altitude
Rises 05:17:21 0° 201° (SSW) 1,959 5.6 -14.0°
Reaches altitude 10° 05:19:13 10° 201° (SSW) 1,140 4.4 -13.7°
Maximum altitude 05:21:41 87° 292° (WNW) 296 1.4 -13.2°
Drops below altitude 10° 05:24:11 10° 21° (NNE) 1,155 4.5 -12.8°
Sets 05:26:05 0° 22° (NNE) 1,988 5.7 -12.5°
